This demonstration page uses our WeatherBlox Daily Observations layout. Learn more.

Hourly Observations for April 6, 2017

Temp ( °F °C ) Dew Point ( °F °C ) Humidity (%) Winds ( mph kmh ) Pressure ( in mb ) Visibility ( mi km ) Precip ( " mm )
12:15 am 00:15 Clear 37 2.6 27 -3 67 67 Calm 30.21 1023 10 16.0934 0 0
12:35 am 00:35 Clear 36 2.4 27 -2.8 69 69 Calm 30.21 1023 10 16.0934 0 0
12:55 am 00:55 Partly Cloudy 36 2.4 28 -2.3 71 71 NE 5 7 30.21 1023 10 16.0934 0 0
1:15 am 01:15 Mostly Cloudy 38 3.3 29 -1.5 71 71 N 3 6 30.21 1023 10 16.0934 0 0
1:35 am 01:35 Mostly Cloudy 37 2.8 29 -1.6 73 73 Calm 30.21 1023 10 16.0934 0 0
1:55 am 01:55 Partly Cloudy 36 2.4 29 -1.6 75 75 WNW 3 6 30.21 1023 10 16.0934 0 0
2:15 am 02:15 Partly Cloudy 35 1.7 29 -1.7 78 78 NNW 6 9 30.21 1023 10 16.0934 0 0
2:35 am 02:35 Partly Cloudy 35 1.7 29 -1.5 80 80 N 6 9 30.21 1023 10 16.0934 0 0
2:55 am 02:55 Mostly Cloudy 39 3.7 30 -1 72 72 N 8 13 30.21 1023 10 16.0934 0 0
3:15 am 03:15 Cloudy 39 3.8 31 -0.7 73 73 NW 5 7 30.21 1023 10 16.0934 0 0
3:35 am 03:35 Cloudy 38 3.5 31 -0.6 75 75 W 5 7 30.21 1023 10 16.0934 0 0
3:55 am 03:55 Cloudy 38 3.4 31 -0.3 77 77 W 5 7 30.24 1024 10 16.0934 0 0
4:15 am 04:15 Cloudy 38 3.6 31 -0.5 75 75 WNW 5 7 30.24 1024 10 16.0934 0 0
4:35 am 04:35 Mostly Cloudy 37 3 31 -0.7 77 77 W 3 6 30.21 1023 10 16.0934 0 0
4:55 am 04:55 Cloudy 37 3 31 -0.6 77 77 NW 5 7 30.24 1024 10 16.0934 0 0
5:15 am 05:15 Mostly Cloudy 37 3 31 -0.5 78 78 WNW 5 7 30.24 1024 10 16.0934 0 0
5:35 am 05:35 Cloudy 37 2.6 31 -0.5 80 80 Calm 30.24 1024 10 16.0934 0 0
5:55 am 05:55 Mostly Cloudy 36 2.2 31 -0.7 81 81 NNW 5 7 30.24 1024 10 16.0934 0 0
6:15 am 06:15 Mostly Cloudy 36 2.2 31 -0.8 81 81 NW 5 7 30.24 1024 10 16.0934 0 0
6:35 am 06:35 Mostly Cloudy 35 1.8 31 -0.5 85 85 NNW 5 7 30.27 1025 10 16.0934 0 0
6:55 am 06:55 Mostly Cloudy 35 1.7 30 -1 82 82 NNW 6 9 30.27 1025 10 16.0934 0 0
7:15 am 07:15 Partly Cloudy 35 1.6 30 -1.1 82 82 NW 7 11 30.27 1025 10 16.0934 0 0
7:35 am 07:35 Partly Cloudy 34 1 30 -1.1 86 86 N 5 7 30.33 1027 10 16.0934 0 0
7:55 am 07:55 Partly Cloudy 34 1 30 -1.3 85 85 N 5 7 30.33 1027 10 16.0934 0 0
8:15 am 08:15 Partly Cloudy 35 1.6 31 -0.5 86 86 N 3 6 30.3 1026 10 16.0934 0 0
8:35 am 08:35 Partly Cloudy 39 4 33 0.3 77 77 N 3 6 30.3 1026 10 16.0934 0 0
8:55 am 08:55 Mostly Cloudy 41 5.1 33 0.4 72 72 N 6 9 30.3 1026 10 16.0934 0 0
9:15 am 09:15 Partly Cloudy 43 6.1 34 0.9 70 70 NNE 6 9 30.3 1026 10 16.0934 0 0
9:35 am 09:35 Sunny 44 6.7 35 1.4 69 69 NE 7 11 30.3 1026 10 16.0934 0 0
9:55 am 09:55 Sunny 46 7.7 35 1.6 66 66 NE 6 9 30.3 1026 10 16.0934 0 0
10:15 am 10:15 Sunny 47 8.5 35 1.4 61 61 NNE 8 13 30.27 1025 10 16.0934 0 0
10:35 am 10:35 Sunny 48 8.8 33 0.6 57 57 NNE 9 15 30.3 1026 10 16.0934 0 0
10:55 am 10:55 Sunny 48 9 33 0.4 55 55 NNE 6 9 30.3 1026 10 16.0934 0 0
11:15 am 11:15 Sunny 49 9.4 33 0.4 54 54 NE 3 6 30.3 1026 10 16.0934 0 0
11:35 am 11:35 Sunny 50 10.1 32 0.2 51 51 NE 6 9 30.3 1026 10 16.0934 0 0
11:55 am 11:55 Sunny 51 10.6 32 -0.2 47 47 NW 3 6 30.3 1026 10 16.0934 0 0
12:15 pm 12:15 Sunny 52 11.3 32 -0.2 45 45 NNE 8 13 30.27 1025 10 16.0934 0 0
12:35 pm 12:35 Sunny 53 11.4 31 -0.5 44 44 NE 5 7 30.27 1025 10 16.0934 0 0
12:55 pm 12:55 Sunny 53 11.8 31 -0.7 42 42 NNE 8 13 30.24 1024 10 16.0934 0 0
1:15 pm 13:15 Sunny 54 12 29 -1.6 39 39 Calm 30.24 1024 10 16.0934 0 0
1:35 pm 13:35 Sunny 55 12.6 30 -1.3 38 38 Calm 30.24 1024 10 16.0934 0 0
1:55 pm 13:55 Sunny 55 12.5 28 -2 37 37 E 5 7 30.24 1024 10 16.0934 0 0
2:15 pm 14:15 Sunny 56 13.2 30 -1.1 37 37 NE 8 13 30.21 1023 10 16.0934 0 0
2:35 pm 14:35 Sunny 56 13.4 29 -1.7 35 35 Calm 30.21 1023 10 16.0934 0 0
2:55 pm 14:55 Sunny 57 13.8 29 -1.9 34 34 NNE 5 7 30.21 1023 10 16.0934 0 0
3:15 pm 15:15 Partly Cloudy 58 14.3 29 -1.8 33 33 NE 5 7 30.21 1023 10 16.0934 0 0
3:35 pm 15:35 Partly Cloudy 57 14.1 28 -2.5 32 32 NNE 3 6 30.21 1023 10 16.0934 0 0
3:55 pm 15:55 Sunny 58 14.2 27 -2.6 31 31 NNW 3 6 30.18 1022 10 16.0934 0 0
4:15 pm 16:15 Sunny 58 14.7 28 -2.2 31 31 NW 6 9 30.15 1021 10 16.0934 0 0
4:35 pm 16:35 Partly Cloudy 59 14.9 28 -2.1 31 31 ENE 3 6 30.15 1021 10 16.0934 0 0
4:55 pm 16:55 Partly Cloudy 59 15.2 27 -2.7 29 29 N 6 9 30.15 1021 10 16.0934 0 0
5:15 pm 17:15 Sunny 59 15.1 27 -2.8 29 29 NNE 7 11 30.15 1021 10 16.0934 0 0
5:35 pm 17:35 Sunny 59 15.1 26 -3.1 29 29 N 6 9 30.12 1020 10 16.0934 0 0
5:55 pm 17:55 Sunny 60 15.3 27 -2.9 29 29 W 5 7 30.12 1020 10 16.0934 0 0
6:15 pm 18:15 Sunny 60 15.3 27 -2.9 29 29 N 7 11 30.12 1020 10 16.0934 0 0
6:35 pm 18:35 Sunny 59 15 26 -3.5 28 28 Calm 30.12 1020 10 16.0934 0 0
6:55 pm 18:55 Sunny 59 15.1 25 -3.7 27 27 Calm 30.12 1020 10 16.0934 0 0
7:15 pm 19:15 Sunny 58 14.7 26 -3.4 29 29 Calm 30.12 1020 10 16.0934 0 0
7:35 pm 19:35 Sunny 57 14.1 29 -1.7 34 34 E 5 7 30.12 1020 10 16.0934 0 0
7:55 pm 19:55 Sunny 52 11.3 32 0.1 46 46 ESE 8 13 30.15 1021 10 16.0934 0 0
8:15 pm 20:15 Clear 48 8.8 33 0.6 57 57 ESE 6 9 30.18 1022 10 16.0934 0 0
8:35 pm 20:35 Clear 47 8.3 31 -0.3 55 55 ESE 6 9 30.18 1022 10 16.0934 0 0
8:55 pm 20:55 Clear 44 6.4 31 -0.3 63 63 ESE 8 13 30.21 1023 10 16.0934 0 0
9:15 pm 21:15 Clear 44 6.5 32 0 64 64 ESE 8 13 30.21 1023 10 16.0934 0 0
9:35 pm 21:35 Clear 44 6.6 31 -0.7 60 60 SE 7 11 30.21 1023 10 16.0934 0 0
9:55 pm 21:55 Clear 40 4.5 30 -1 68 68 ESE 9 15 30.21 1023 10 16.0934 0 0
10:15 pm 22:15 Clear 40 4.5 31 -0.5 70 70 ESE 9 15 30.24 1024 10 16.0934 0 0
10:35 pm 22:35 Clear 40 4.7 30 -1.2 66 66 SE 9 15 30.24 1024 10 16.0934 0 0
10:55 pm 22:55 Clear 40 4.3 29 -1.5 66 66 SE 9 15 30.27 1025 10 16.0934 0 0
11:15 pm 23:15 Clear 40 4.3 29 -1.5 66 66 SE 8 13 30.27 1025 10 16.0934 0 0
11:35 pm 23:35 Clear 40 4.5 29 -1.7 64 64 SE 8 13 30.24 1024 10 16.0934 0 0
11:55 pm 23:55 Clear 41 4.8 29 -1.6 64 64 SE 9 15 30.21 1023 10 16.0934 0 0

Powered by AerisWeather